Weather History for LFPB - December, 2011

Change the Weather History Date:

Tuesday, December 13, 2011

  Actual Average Record
Temperature  
Mean Temperature 50 °F -  
Max Temperature 55 °F 43 °F 57 °F (2003)
Min Temperature 44 °F 35 °F 23 °F (2012)
Degree Days  
Heating Degree Days 16    
Moisture  
Dew Point 43 °F    
Average Humidity 80    
Maximum Humidity 94    
Minimum Humidity 66    
Precipitation  
Precipitation 0.00 in 0.07 in - ()
Sea Level Pressure  
Sea Level Pressure 29.57 in    
Wind  
Wind Speed 18 mph ()    
Max Wind Speed 28 mph    
Max Gust Speed 44 mph    
Visibility 6.2 miles    
Events Rain    
Averages and records for this station are not official NWS values.
T = Trace of Precipitation, MM = Missing Value Source: Averaged Metar Reports

Daily Weather History Graph

Daily Weather History Graph

Search for Another Location

Airport or City:

Trip Planner

Search our weather history database for the weather conditions in past years. The results will help you decide how hot, cold, wet, or windy it might be!

Date:

Astronomy

Dec. 13, 2011 Rise Set
Actual Time 8:35 AM CET 4:52 PM CET
Civil Twilight 7:58 AM CET 5:30 PM CET
Nautical Twilight 7:17 AM CET 6:10 PM CET
Astronomical Twilight 6:39 AM CET 6:49 PM CET
Moon 8:00 PM CET (12/13) 10:29 AM CET (12/13)
Length of Visible Light 9h 31m
Length of Day
8h 17m
Waning Gibbous, 92% of the Moon is Illuminated
Dec 13
Waning Gibbous
Dec 18
Last Quarter
Dec 24
New
Jan 1
First Quarter
Jan 9
Full

Hourly Weather History & Observations

Time (CET) Temp. Windchill Dew Point Humidity Pressure Visibility Wind Dir Wind Speed Gust Speed Precip Events Conditions
12:00 AM 44.6 °F 37.2 °F 41.0 °F 87% 29.77 in 6.2 mi South 17.3 mph - N/A Rain Light Rain
12:30 AM 46.4 °F 39.0 °F 41.0 °F 81% 29.74 in 6.2 mi South 19.6 mph - N/A Rain Rain
1:00 AM 46.4 °F 38.7 °F 41.0 °F 81% 29.71 in 6.2 mi South 20.7 mph - N/A Rain Light Rain
1:30 AM 46.4 °F 37.9 °F 41.0 °F 81% 29.68 in 6.2 mi South 25.3 mph - N/A   Mostly Cloudy
2:00 AM 48.2 °F - 41.0 °F 76% 29.62 in 6.2 mi South 27.6 mph - N/A   Overcast
2:30 AM 48.2 °F - 42.8 °F 82% 29.62 in 6.2 mi SSW 27.6 mph 43.7 mph N/A   Overcast
3:00 AM 48.2 °F - 42.8 °F 82% 29.59 in 6.2 mi South 27.6 mph 40.3 mph N/A   Overcast
3:30 AM 48.2 °F - 42.8 °F 82% 29.59 in 6.2 mi South 25.3 mph 36.8 mph N/A   Overcast
4:00 AM 48.2 °F - 44.6 °F 87% 29.56 in 6.2 mi SSW 23.0 mph - N/A   Overcast
4:30 AM 48.2 °F - 46.4 °F 93% 29.56 in 6.2 mi SSW 21.9 mph 38.0 mph N/A   Overcast
5:00 AM 50.0 °F - 46.4 °F 87% 29.53 in 6.2 mi SSW 24.2 mph - N/A   Overcast
5:30 AM 50.0 °F - 46.4 °F 87% 29.50 in 6.2 mi SSW 23.0 mph 36.8 mph N/A   Overcast
6:00 AM 50.0 °F - 48.2 °F 94% 29.50 in 6.2 mi SSW 24.2 mph - N/A Rain Light Rain
6:30 AM 50.0 °F - 48.2 °F 94% 29.50 in 5.0 mi SSW 23.0 mph - N/A Rain Light Rain
7:00 AM 51.8 °F - 48.2 °F 88% 29.47 in 6.2 mi SSW 24.2 mph 35.7 mph N/A Rain Light Rain
7:30 AM 50.0 °F - 48.2 °F 94% 29.47 in 6.2 mi SSW 23.0 mph 36.8 mph N/A Rain Light Rain
8:00 AM 50.0 °F - 48.2 °F 94% 29.47 in 6.2 mi SSW 23.0 mph 36.8 mph N/A Rain Light Rain
8:30 AM 50.0 °F - 48.2 °F 94% 29.44 in 6.2 mi SSW 25.3 mph - N/A   Overcast
9:00 AM 51.8 °F - 48.2 °F 88% 29.44 in 6.2 mi SSW 24.2 mph 38.0 mph N/A Rain Light Rain
9:30 AM 51.8 °F - 48.2 °F 88% 29.44 in 6.2 mi SSW 26.5 mph 39.1 mph N/A   Overcast
10:00 AM 51.8 °F - 48.2 °F 88% 29.47 in - SW 27.6 mph 40.3 mph N/A Rain Rain
10:30 AM 51.8 °F - 48.2 °F 88% 29.47 in 6.2 mi SSW 20.7 mph 34.5 mph N/A Rain Light Rain
11:00 AM 50.0 °F - 46.4 °F 87% 29.50 in 6.2 mi West 17.3 mph - N/A Rain Rain
11:30 AM 50.0 °F - 48.2 °F 94% 29.50 in 5.6 mi WSW 13.8 mph - N/A Rain Light Rain
12:00 PM 50.0 °F - 46.4 °F 87% 29.50 in 6.2 mi SW 15.0 mph - N/A Rain Light Rain
12:30 PM 51.8 °F - 46.4 °F 82% 29.50 in 6.2 mi WSW 11.5 mph - N/A   Unknown
1:00 PM 53.6 °F - 46.4 °F 77% 29.50 in 6.2 mi WSW 19.6 mph - N/A   Scattered Clouds
1:30 PM 55.4 °F - 46.4 °F 72% 29.50 in 6.2 mi WSW 16.1 mph - N/A   Scattered Clouds
2:00 PM 53.6 °F - 44.6 °F 72% 29.53 in 6.2 mi WSW 18.4 mph 29.9 mph N/A   Scattered Clouds
2:30 PM 51.8 °F - 44.6 °F 76% 29.53 in 6.2 mi West 19.6 mph 35.7 mph N/A Rain Light Rain
3:00 PM 50.0 °F - 42.8 °F 76% 29.56 in 6.2 mi West 11.5 mph - N/A   Mostly Cloudy
3:30 PM 46.4 °F 39.8 °F 41.0 °F 81% 29.59 in 6.2 mi West 16.1 mph - N/A   Mostly Cloudy
4:00 PM 46.4 °F 40.4 °F 41.0 °F 81% 29.59 in 6.2 mi West 13.8 mph - N/A   Mostly Cloudy
4:30 PM 46.4 °F 41.5 °F 39.2 °F 76% 29.62 in 6.2 mi WSW 10.4 mph - N/A   Unknown
5:00 PM 46.4 °F 41.5 °F 39.2 °F 76% 29.62 in 6.2 mi SW 10.4 mph - N/A   Unknown
5:30 PM 46.4 °F 42.9 °F 41.0 °F 81% 29.62 in 6.2 mi SW 6.9 mph - N/A   Unknown
6:00 PM 48.2 °F - 39.2 °F 71% 29.62 in 6.2 mi SW 10.4 mph - N/A   Unknown
6:30 PM 48.2 °F - 37.4 °F 66% 29.62 in 6.2 mi SW 12.7 mph - N/A   Unknown
7:00 PM 48.2 °F - 39.2 °F 71% 29.62 in 6.2 mi SW 16.1 mph - N/A   Unknown
7:30 PM 48.2 °F - 37.4 °F 66% 29.65 in 6.2 mi SW 18.4 mph - N/A   Unknown
8:00 PM 48.2 °F - 37.4 °F 66% 29.65 in 6.2 mi SW 18.4 mph - N/A   Unknown
8:30 PM 48.2 °F - 37.4 °F 66% 29.68 in 6.2 mi SW 17.3 mph - N/A   Unknown
9:00 PM 48.2 °F - 37.4 °F 66% 29.68 in 6.2 mi SW 16.1 mph - N/A   Unknown
9:30 PM 46.4 °F 40.1 °F 37.4 °F 71% 29.68 in 6.2 mi SW 15.0 mph - N/A   Unknown
10:00 PM 48.2 °F - 37.4 °F 66% 29.65 in 6.2 mi SW 15.0 mph - N/A   Unknown
10:30 PM 46.4 °F 40.7 °F 37.4 °F 71% 29.65 in 6.2 mi SSW 12.7 mph - N/A   Unknown
11:00 PM 46.4 °F 40.7 °F 37.4 °F 71% 29.65 in 6.2 mi SSW 12.7 mph - N/A   Unknown
11:30 PM 48.2 °F - 39.2 °F 71% 29.65 in 6.2 mi SSW 16.1 mph - N/A   Unknown